Regional Weather Roundup
Issued by NWS

Home | Current Version | Previous Version | Graphics & Text | Print | Product List | Glossary On
Versions: 1 2 3 4 5 6 7 8 9 10 11 12 13 14 15 16 17 18 19 20 21 22 23 24 25 26 27 28 29 30 31 32 33 34 35 36 37 38 39 40 41 42 43 44 45 46 47 48 49 50
920
ASUS45 KSLC 230010
RWRUT

UTAH REGIONAL WEATHER ROUNDUP
NATIONAL WEATHER SERVICE SALT LAKE CITY UT
600 PM MDT SAT JUL 22 2017

UTZ001>011-023>025-230100-

NORTHERN UTAH

CITY           SKY/WX    TMP DP  RH WIND       PRES   REMARKS
BRIGHAM CITY   SUNNY     96  20   6 W3        30.05F
HILL AFB       NOT AVBL
LOGAN          SUNNY     95  32  11 NW5       30.07F HX  90
OGDEN          SUNNY     96  38  13 N9        30.05F HX  91
SALT LAKE CITY PTSUNNY   98  44  15 N9        30.03F HX  94
TOOELE VALLEY  MOSUNNY   90  54  29 N8        30.06F
WENDOVER       SUNNY     96  38  13 E10       30.03F HX  91
HEBER CITY     CLOUDY    88  45  22 SW6       30.15S
WEST JORDAN    PTSUNNY   91  59  33 CALM      30.08F HX  90

$$

UTZ011>015-024>027-230100-

CENTRAL/NORTHEAST UTAH

CITY           SKY/WX    TMP DP  RH WIND       PRES   REMARKS
PROVO AIRPORT  CLOUDY    88  59  37 NW6       30.08F
MOAB/CANYONLAN SUNNY     97  44  16 NE10      29.99F HX  93
DELTA          PTSUNNY   90  37  15 NE10G16   30.08R
PRICE          CLOUDY    86  47  25 MISG      30.16F
RICHFIELD      SUNNY     91  43  18 NE10      30.11F
ROOSEVELT      MOSUNNY   90  34  13 SW3       30.14F
VERNAL         SUNNY     91  44  19 W7        30.10F

$$

UTZ013>016-019>022-027-230100-

SOUTHERN UTAH

CITY           SKY/WX    TMP DP  RH WIND       PRES   REMARKS
BRYCE CANYON   MOSUNNY   75  58  55 W6        30.30F
CEDAR CITY     CLOUDY    83  45  26 NE10      30.16R
MILFORD        PTSUNNY   99  40  13 N16       30.04F HX  94
ST GEORGE      CLOUDY    92  53  26 SW9       29.89S
HANKSVILLE     SUNNY     99  37  12 NE15G22   30.03F HX  93
KANAB          SUNNY     86  63  45 N7        30.09F
BLANDING       PTSUNNY   75  53  45 N12       30.23S

$$

REGIONAL REPORTS     COLORADO/ARIZONA

CITY           SKY/WX    TMP DP  RH WIND       PRES   REMARKS
CRAIG, CO      SUNNY     89  25  10 NE7       30.20F
GRAND JUNCTION SUNNY     94  51  23 SW8       30.03F HX  91
RIFLE, CO      MOSUNNY   92  37  14 NW12      30.10F
MONTROSE, CO   MOSUNNY   86  51  29 S15       30.15S
CORTEZ, CO     MOSUNNY   81  52  36 CALM      30.15S
COLORADO CITY    N/A     81  68  65 E3        30.09F
PAGE, AZ       SUNNY     97  48  18 E12       29.98F HX  93
GRAND CANYON   PTSUNNY   88  38  17 NE14G24   30.21S
KINGMAN, AZ    MOSUNNY   98  54  22 W14       29.93F HX  96
FLAGSTAFF, AZ  PTSUNNY   79  48  33 NE15      30.23F

$$

REGIONAL REPORTS    NEVADA/IDAHO/WYOMING

CITY           SKY/WX    TMP DP  RH WIND       PRES   REMARKS
LAS VEGAS, NV  MOSUNNY  107  50  15 CALM      29.79F HX 104
ELY, NY        LGT RAIN  85  36  17 E12G36    30.19R
ELKO, NV       MOSUNNY   97  25   7 S3        30.06F HX  90
POCATELLO, ID  SUNNY     91  28  10 SW9       30.12F
BURLEY, ID     SUNNY     86  37  17 W7        30.09F
FORT BRIDGER,    N/A     88  26  10 NW12      30.30F
EVANSTON, WY   MOSUNNY   86  30  13 NW9G20    30.29F
ROCK SPRINGS,  SUNNY     87  22   9 NW9G22    30.25F
KEMMERER, WY     N/A     82  23  11 NW14G21   30.31F

$$




USA.gov is the U.S. government's official web portal to all federal, state and local government web resources and services.